sat.trackr.live / text

‹ back to catalog

STARLINK-2119

NORAD 47397 · 2021-005BA

PAYLOAD ACTIVE UNKNOWN

§ Identity

Operator
Country
US
Launch date
2021-01-20
Launch site
AFETR
Launch vehicle
Mass (kg)
RCS (m²)

Purposes: comms

External: N2YO · Heavens-Above · Gunter

§ Orbital elements

Epoch: 2026-09-20T03:34:18.556896Z

Period
93.38 min
Inclination
53.1536°
Eccentricity
0.0001489
Mean motion
15.42143598 rev/d
Perigee alt
438.8 km
Apogee alt
440.8 km
Semi-major
6,817.9 km
B*
9.5824e-4
RAAN
232.9266°
Arg perigee
24.3374°
Mean anomaly
335.7702°
Rev number
31,289

§ Raw data

STARLINK-21191 47397U 21005BA  26263.14882589  .00041490  00000+0  95824-3 0  99902 47397  53.1536 232.9266 0001489  24.3374 335.7702 15.42143598312892

JSON: /api/v1/satellites/47397 · /tle

For live sub-satellite position, see the globe view (requires WebGL).

§ Visibility from observer

Set your observer location to see the next 7 days of passes ≥ 10°. The values pass through the URL so the page stays shareable.

No JS? Fill the form by hand. The geolocation button needs JavaScript.